N1SU-13 Weather Reports


Display with metric or nautical units.
time (UTC)temp
F
wind
direction
speed
MPH
gust
MPH
rain 1hr
in
rain 24hr
in
rain mn
in
humidity
%
barometer
mb
20260831015251 68 0.0 0.0 0.00 0.00 0.00 52 1016.1
20260831014206 68 0.0 0.0 0.00 0.00 0.00 52 1016.1
20260831013152 69 0.0 0.0 0.00 0.00 0.00 51 1016.2
20260831012122 69 0.0 0.0 0.00 0.00 0.00 52 1016.2
20260831011122 70 0.0 0.0 0.00 0.00 0.00 49 1016.2
20260831010059 70 0.0 0.0 0.00 0.00 0.00 49 1016.3
20260831005042 71 0.0 0.0 0.00 0.00 0.00 49 1016.3
20260831003930 71 0.0 0.0 0.00 0.00 0.00 49 1016.3
20260831003001 70 0.0 0.0 0.00 0.00 0.00 49 1016.5
20260831001952 69 0.0 0.0 0.00 0.00 0.00 50 1016.5
20260831001002 69 0.0 0.0 0.00 0.00 0.00 50 1016.4
20260830235922 69 0.0 0.0 0.00 0.00 0.00 51 1016.7
20260830234801 70 0.0 0.0 0.00 0.00 0.00 51 1016.7
20260830233746 70 0.0 0.0 0.00 0.00 0.00 50 1016.7
20260830232706 70 0.0 0.0 0.00 0.00 0.00 49 1016.7
20260830231545 70 0.0 0.0 0.00 0.00 0.00 50 1016.7
20260830230550 70 0.0 0.0 0.00 0.00 0.00 50 1016.9
20260830225533 69 0.0 0.0 0.00 0.00 0.00 51 1017.1
20260830224354 69 0.0 0.0 0.00 0.00 0.00 51 1017.2
20260830223331 68 0.0 0.0 0.00 0.00 0.00 52 1017.3
20260830222320 68 0.0 0.0 0.00 0.00 0.00 51 1017.4
20260830221255 69 0.0 0.0 0.00 0.00 0.00 52 1017.3
20260830220314 68 0.0 0.0 0.00 0.00 0.00 55 1017.4
20260830215258 66 0.0 0.0 0.00 0.00 0.00 56 1017.6
20260830214158 66 0.0 0.0 0.00 0.00 0.00 56 1017.8
20260830213910 58 0.0 0.0 0.00 0.52 0.00 73 1018.0
20260830213101 65 0.0 0.0 0.00 0.00 0.00 57 1017.9
20260830212056 64 0.0 0.0 0.00 0.00 0.00 60 1018.1
20260830210950 64 0.0 0.0 0.00 0.00 0.00 59 1018.3
20260830205817 65 0.0 0.0 0.00 0.00 0.00 57 1018.4
20260830205014 65 0.0 0.0 0.00 0.00 0.00 57 1018.3
20260830204758 65 0.0 0.0 0.00 0.00 0.00 57 1018.3
20260830203809 65 0.0 0.0 0.00 0.00 0.00 57 1018.4
20260830202837 64 0.0 0.0 0.00 0.00 0.00 62 1018.6
20260830202803 64 0.0 0.0 0.00 0.00 0.00 62 1018.6
20260830201702 63 0.0 0.0 0.00 0.00 0.00 62 1018.7
20260830200607 62 0.0 0.0 0.00 0.00 0.00 62 1018.9
20260830195636 62 0.0 0.0 0.00 0.00 0.00 63 1018.9
20260830194535 62 0.0 0.0 0.00 0.00 0.00 63 1018.8
20260830193534 62 0.0 0.0 0.00 0.00 0.00 63 1018.9
20260830192511 62 0.0 0.0 0.00 0.00 0.00 63 1018.8
20260830191357 61 0.0 0.0 0.00 0.00 0.00 65 1019.0
20260830190355 60 0.0 0.0 0.00 0.00 0.00 68 1019.0
20260830185321 59 0.0 0.0 0.00 0.00 0.00 69 1019.3
20260830184232 59 0.0 0.0 0.00 0.00 0.00 70 1019.3
20260830183125 59 0.0 0.0 0.00 0.00 0.00 70 1019.2
20260830182109 59 0.0 0.0 0.00 0.01 0.00 70 1019.2
20260830181127 59 0.0 0.0 0.00 0.03 0.00 71 1019.3
20260830180010 58 0.0 0.0 0.00 0.06 0.00 72 1019.3
20260830174930 58 0.0 0.0 0.00 0.08 0.00 73 1019.4
20260830173947 58 0.0 0.0 0.00 0.10 0.00 73 1019.4
20260830172929 58 0.0 0.0 0.00 0.12 0.00 73 1019.4
20260830171936 58 0.0 0.0 0.00 0.13 0.00 72 1019.3
20260830170955 58 0.0 0.0 0.00 0.13 0.00 73 1019.4
20260830165953 57 0.0 0.0 0.00 0.14 0.00 74 1019.2
20260830164841 57 0.0 0.0 0.00 0.14 0.00 76 1019.3
20260830163802 56 0.0 0.0 0.00 0.14 0.00 76 1019.2
20260830162813 56 0.0 0.0 0.00 0.14 0.00 76 1019.3
20260830161852 56 0.0 0.0 0.00 0.14 0.00 76 1019.4
20260830160825 56 0.0 0.0 0.00 0.14 0.00 78 1019.4
20260830155757 56 0.0 0.0 0.00 0.14 0.00 78 1019.5
20260830154803 55 0.0 0.0 0.00 0.14 0.00 80 1019.4
20260830153821 55 0.0 0.0 0.00 0.15 0.00 81 1019.4
20260830152701 54 0.0 0.0 0.00 0.16 0.00 83 1019.5
20260830151637 54 0.0 0.0 0.00 0.17 0.00 83 1019.3
20260830150551 54 0.0 0.0 0.00 0.20 0.00 85 1019.4
20260830145545 54 0.0 0.0 0.00 0.23 0.00 87 1019.4
20260830144518 54 0.0 0.0 0.00 0.26 0.00 87 1019.5
20260830142511 53 0.0 0.0 0.00 0.31 0.00 88 1019.2
20260830141444 53 0.0 0.0 0.00 0.39 0.00 88 1019.1
20260830140312 53 0.0 0.0 0.00 0.46 0.00 88 1019.1
20260830135145 53 0.0 0.0 0.00 0.46 0.00 88 1019.1
20260830134131 53 0.0 0.0 0.00 0.46 0.00 88 1019.1
20260830133125 53 0.0 0.0 0.00 0.46 0.00 88 1019.1
20260830132046 53 0.0 0.0 0.00 0.46 0.00 88 1019.1
20260830131008 53 0.0 0.0 0.00 0.46 0.00 88 1019.0
20260830124950 53 0.0 0.0 0.00 0.46 0.00 88 1019.1
20260830123833 53 0.0 0.0 0.00 0.46 0.00 88 1019.1
20260830122809 53 0.0 0.0 0.00 0.46 0.00 88 1019.2
20260830121733 53 0.0 0.0 0.00 0.46 0.00 87 1019.1
20260830120649 53 0.0 0.0 0.00 0.46 0.00 87 1019.2
20260830115647 53 0.0 0.0 0.00 0.46 0.00 86 1019.1
20260830114705 53 0.0 0.0 0.00 0.46 0.00 86 1019.2
20260830113611 53 0.0 0.0 0.00 0.46 0.00 86 1019.0
20260830112507 53 0.0 0.0 0.00 0.46 0.00 85 1019.1
20260830111535 53 0.0 0.0 0.00 0.46 0.00 86 1018.9
20260830110420 53 0.0 0.0 0.00 0.46 0.00 86 1018.9
20260830105409 53 0.0 0.0 0.00 0.46 0.00 86 1019.0
20260830104430 53 0.0 0.0 0.00 0.46 0.00 86 1019.0
20260830103257 53 0.0 0.0 0.00 0.46 0.00 85 1019.0
20260830102153 54 0.0 0.0 0.00 0.46 0.00 85 1019.0
20260830101237 54 0.0 0.0 0.00 0.46 0.00 85 1018.9
20260830100252 54 0.0 0.0 0.00 0.50 0.00 84 1018.8
20260830095134 54 0.0 0.0 0.00 0.50 0.00 85 1018.9
20260830094038 54 0.0 0.0 0.00 0.50 0.00 85 1019.0
20260830092917 54 0.0 0.0 0.00 0.51 0.00 85 1018.8
20260830091910 54 0.0 0.0 0.00 0.52 0.00 84 1018.8
20260830090747 54 0.0 0.0 0.00 0.52 0.00 84 1018.9
20260830085729 54 0.0 0.0 0.00 0.52 0.00 84 1018.8
20260830084640 54 0.0 0.0 0.00 0.52 0.00 83 1018.8
20260830083954 54 0.0 0.0 0.00 0.52 0.00 84 1018.8
20260830083511 54 0.0 0.0 0.00 0.52 0.00 83 1018.9
20260830082512 54 0.0 0.0 0.00 0.52 0.00 82 1018.9
20260830081543 54 0.0 0.0 0.00 0.52 0.00 83 1018.7
20260830080605 54 0.0 0.0 0.00 0.52 0.00 83 1018.7
20260830075511 54 0.0 0.0 0.00 0.52 0.00 82 1018.7
20260830074537 54 0.0 0.0 0.00 0.52 0.00 82 1018.7
20260830073430 54 0.0 0.0 0.00 0.52 0.00 83 1018.7
20260830072407 54 0.0 0.0 0.00 0.52 0.00 82 1018.5
20260830072221 54 0.0 0.0 0.00 0.52 0.00 82 1018.6
20260830071339 55 0.0 0.0 0.00 0.52 0.00 81 1018.5
20260830070349 55 0.0 0.0 0.00 0.52 0.00 81 1018.4
20260830065335 55 0.0 0.0 0.00 0.52 0.00 81 1018.4
20260830064309 55 0.0 0.0 0.00 0.52 0.00 81 1018.3
20260830063203 55 0.0 0.0 0.00 0.52 0.00 81 1018.1
20260830062215 55 0.0 0.0 0.00 0.52 0.00 81 1018.2
20260830061157 55 0.0 0.0 0.00 0.52 0.00 80 1018.2
20260830060125 56 0.0 0.0 0.00 0.52 0.00 79 1018.1
20260830055010 56 0.0 0.0 0.00 0.52 0.00 79 1018.2
20260830053842 56 0.0 0.0 0.00 0.52 0.00 79 1018.2
20260830052918 56 0.0 0.0 0.00 0.52 0.00 78 1018.2
20260830051757 57 0.0 0.0 0.00 0.52 0.00 75 1018.1
20260830050656 57 0.0 0.0 0.00 0.52 0.00 74 1018.1
20260830045730 57 0.0 0.0 0.00 0.52 0.00 73 1018.0
20260830044623 58 0.0 0.0 0.00 0.52 0.00 73 1018.0
20260830043530 58 0.0 0.0 0.00 0.52 0.00 74 1017.9
20260830042525 58 0.0 0.0 0.00 0.52 0.00 75 1017.9
20260830041534 58 0.0 0.0 0.00 0.52 0.00 76 1017.9
20260830035536 58 0.0 0.0 0.00 0.52 0.00 81 1017.5
20260830034611 59 0.0 0.0 0.00 0.52 0.00 79 1017.4
20260830033646 59 0.0 0.0 0.00 0.52 0.00 78 1017.2
20260830032639 59 0.0 0.0 0.00 0.52 0.00 75 1017.0
20260830031524 60 0.0 0.0 0.00 0.52 0.00 78 1016.8
20260830030526 60 0.0 0.0 0.00 0.52 0.00 77 1016.8
20260830025526 60 0.0 0.0 0.00 0.52 0.00 80 1016.8
20260830024356 61 0.0 0.0 0.00 0.52 0.00 82 1016.5
20260830023238 61 0.0 0.0 0.00 0.52 0.00 81 1016.5
20260830022308 61 0.0 0.0 0.00 0.52 0.00 81 1016.6
20260830021235 62 0.0 0.0 0.00 0.52 0.00 79 1016.5
20260830020204 62 0.0 0.0 0.00 0.52 0.00 79 1016.4